SCP
1 1 0 0 0 0 0 0 0 0 0 0 0 0 0 -0 0 0 0 0 0 0 0 -0 -0 0 0 0 0 0 -0 -0 -0 -0 -0 -0 -0 -0
0 0 0 0 0 0 -0 0 -0 0 0 0 0 0 0 0 0 0 0 0 0 0 0 0 0 0 0 0 0 0 -0 -0 -0 -0 -0 -0 0 0
0 0 0 0 0 0 0 -0 0 0 0 0 0 0 0 0 0 0 0 0 0 0 0 0 -0 0 0 0 -0 -0 -0 -0 -0 0 -0 0 0 0
0 0 0 0 -0 0 0 0 0 0 0 0 0 0 0 0 0 0 0 0 0 0 0 0 -0 -0 -0 0 -0 -0 -0 -0 -0 -0 -0 0 0 -0
0 0 0 0 0 0 0 0 0 0 -0 0 0 0 0 0 0 0 0 0 0 0 0 0 0 -0 -0 -0 -0 -0 0 0 -0 0 -0 -0 -0 -0
0 0 0 0 0 0 0 0 0 0 0 0 0 0 0 0 0 0 0 0 0 0 0 0 0 -0 -0 0 0 0 0 -0 0 -0 -0 0 -0 -0
0 0 0 0 0 0 0 0 0 0 0 0 0 0 0 0 0 0 0 0 0 0 0 0 0 0 0 0 0 0 0 0 -0 -0 -0 0 -0 0
0 0 0 0 0 0 0 0 0 0 0 0 0 0 0 0 0 0 0 0 0 0 0 0 0 0 0 0 0 0 0 0 0 0 0 0 0 0
0 -0 -0 0 0 0 0 0 0 0 0 0 0 0 0 0 0 0 0 0 0 0 0 0 0 0 0 0 0 0 0 0 0 -0 0 0 0 0
0 -0 -0 0 0 0 0 0 0 0 0 0 0 0 0 0 0 0 0 0 0 0 0 0 0 0 0 0 0 0 0 0 -0 0 -0 -0 0 0
-0 -0 0 0 0 0 0 0 0 0 0 0 0 0 0 0 0 0 0 0 0 0 0 0 0 0 0 0 0 0 0 -0 0 -0 -0 -0 0 0
-0 0 0 0 0 0 0 0 0 0 0 0 0 0 0 0 0 0 0 0 0 0 0 0 0 0 0 0 0 0 0 0 -0 -0 -0 -0 0 0
-0 0 0 0 0 0 0 0 0 0 0 0 0 0 0 0 0 0 0 0 0 0 0 0 0 0 0 0 0 0 0 0 -0 -0 -0 -0 0 0
0 0 0 0 0 0 0 0 0 0 0 0 0 0 0 0 0 0 0 0 0 0 0 0 0 0 0 0 0 0 0 -0 -0 -0 0 0 -0 0
0 0 0 0 0 0 0 0 0 0 0 0 0 0 0 0 0 0 0 -0 0 0 -0 -0 0 0 0 -0 0 0 0 -0 -0 0 0 0 0 0
0 0 0 0 0 0 0 0 0 0 0 0 0 0 0 0 0 0 0 0 0 0 0 0 0 0 -0 -0 0 0 0 -0 -0 0 0 0 0 0
0 0 0 0 0 0 0 0 0 0 0 0 0 0 0 0 0 0 0 -0 0 0 0 -0 -0 0 0 -0 -0 -0 0 0 0 0 0 0 0 0
0 0 0 0 0 0 0 0 0 0 0 0 0 0 0 -0 -0 0 -0 -0 0 -0 -0 -0 -0 -0 -0 -0 -0 -0 -0 -0 0 0 0 0 0 0
0 0 0 0 0 0 0 0 0 0 0 0 0 0 -0 -0 0 0 0 0 0 0 0 0 0 0 0 0 -0 -0 0 0 0 0 0 0 0 0
-0 0 0 -0 -0 0 0 0 0 0 0 -0 -0 -0 -0 -0 -0 0 0 0 0 -0 -0 0 0 0 0 0 0 -0 -0 0 0 0 0 0 0 0
-0 0 0 0 0 0 -0 -0 0 -0 -0 -0 -0 -0 0 0 0 0 0 0 -0 -0 -0 0 0 -0 0 0 0 0 0 0 0 0 0 0 0 0
-0 -0 -0 -0 -0 -0 -0 -0 -0 -0 -0 -0 -0 0 0 0 -0 -0 0 0 -0 0 0 -0 -0 0 0 0 0 0 0 0 0 0 0 0 0 0
-0 -0 -0 -0 -0 0 -0 0 0 -0 -0 -0 -0 -0 -0 0 0 0 0 0 0 0 0 0 0 0 0 0 0 0 0 0 0 0 0 0 0 0
Wind_Speed_500mb
26 27 22 23 24 17 21 17 25 15 23 23 29 34 38 34 32 31 34 38 41 45 48 47 43 38 41 46 43 41 38 40 37 35 33 33 31 32
27 25 20 24 21 19 22 17 18 15 17 27 30 41 35 32 35 32 35 39 39 42 46 44 41 37 40 43 42 39 39 36 34 33 30 30 32 27
29 32 22 23 19 26 20 18 18 21 25 30 31 40 37 36 34 31 37 40 41 36 43 41 40 39 43 45 40 39 37 35 34 30 34 34 29 24
29 31 23 19 20 25 26 24 18 18 25 40 40 38 34 33 34 35 38 41 41 44 41 40 38 44 47 42 41 41 35 35 30 31 31 27 23 21
30 28 27 23 19 24 29 32 23 17 34 48 54 47 44 36 40 44 39 45 43 46 43 40 41 48 46 42 40 36 33 30 28 30 28 25 24 20
26 28 35 30 19 23 35 26 25 30 39 55 55 51 46 43 42 42 43 47 49 49 48 42 46 44 44 40 38 35 33 32 32 30 27 25 21 21
22 24 27 30 22 21 32 29 27 33 47 54 55 52 46 45 47 49 55 53 52 52 51 49 50 51 47 42 38 34 32 32 32 28 26 23 22 23
26 22 28 36 22 22 28 30 33 36 47 48 53 52 50 53 49 52 56 63 56 50 56 59 51 52 47 41 38 38 38 36 32 28 26 25 24 25
14 25 32 23 23 20 23 28 31 27 28 32 46 50 54 54 53 54 55 61 64 61 57 56 50 48 42 38 40 40 39 37 32 29 28 25 26 26
16 23 21 18 20 21 27 30 32 27 16 22 39 46 44 50 45 48 57 60 62 56 58 63 54 40 36 35 36 42 42 37 31 30 28 28 28 29
18 23 23 25 27 29 37 38 32 25 22 15 29 35 34 43 44 46 48 56 66 59 53 58 42 36 33 33 37 43 40 35 34 33 32 31 30 35
21 30 31 26 39 35 32 32 34 28 26 27 34 36 37 41 38 37 50 60 66 56 50 49 46 34 22 28 34 44 41 36 35 36 34 33 34 39
21 27 34 28 44 36 29 29 28 30 26 33 45 41 48 44 45 36 43 58 61 51 52 45 54 35 15 14 27 35 37 35 37 35 35 36 38 43
21 28 36 34 36 31 30 24 21 34 35 43 46 51 56 54 52 38 36 32 39 26 33 38 48 33 24 18 14 24 31 34 34 34 35 38 42 48
30 33 41 36 32 28 22 22 36 38 42 47 47 51 55 53 51 38 27 13 36 20 26 31 33 33 30 27 21 25 18 20 32 35 36 40 43 45
33 39 40 37 36 37 34 31 34 37 39 41 45 48 48 36 42 39 32 47 33 20 25 28 30 33 38 29 19 26 33 31 30 30 34 41 47 54
36 40 40 40 49 45 37 28 31 36 33 42 45 49 43 43 43 41 38 30 21 21 26 36 39 37 38 36 33 35 32 36 38 42 46 56 58 61
36 39 39 42 46 43 32 27 25 29 38 40 42 45 52 51 42 35 28 27 26 18 11 28 35 35 36 41 46 44 42 43 44 46 51 60 69 69
29 37 37 35 39 32 26 27 26 28 33 40 37 45 47 51 37 35 34 37 32 30 32 17 18 30 36 44 38 33 38 38 44 53 53 52 60 70
23 31 33 29 21 21 26 31 26 31 38 44 42 41 45 33 28 31 26 21 24 21 21 32 37 36 37 39 40 37 40 49 50 55 59 65 74 79
20 21 16 13 20 22 22 32 33 33 41 41 40 41 38 34 36 33 36 29 32 32 34 38 40 42 47 50 55 57 54 54 61 61 68 74 80 84
19 21 21 21 19 25 28 24 28 31 25 33 35 32 45 42 37 36 31 34 36 42 42 44 42 40 45 54 62 63 63 63 64 69 73 73 77 88
24 22 15 14 21 16 21 28 25 27 29 27 29 28 29 33 26 32 30 30 35 39 40 48 45 41 45 54 62 68 68 69 71 73 77 71 70 77
Wind_Direction_500mb
225 223 236 222 230 217 244 254 213 184 183 176 173 175 185 168 161 166 169 168 167 170 172 172 174 179 172 173 169 178 180 173 171 170 165 167 167 171
226 233 239 224 226 229 218 228 215 210 172 175 175 169 173 159 160 168 173 170 167 171 172 173 175 172 173 168 171 174 170 169 169 167 165 169 177 177
232 237 235 227 218 215 202 222 221 212 184 161 165 162 157 166 170 168 169 172 166 171 170 168 171 169 166 169 169 168 173 169 169 169 178 178 182 186
238 235 228 218 228 204 200 204 211 179 164 157 156 166 159 170 170 163 166 172 166 164 171 168 170 168 170 169 168 174 174 174 172 179 178 181 190 198
241 231 222 221 230 205 199 199 194 165 163 163 155 161 169 179 165 168 169 168 164 163 169 170 170 170 168 170 175 176 179 176 185 184 186 199 203 218
235 230 222 220 223 202 197 198 179 173 168 172 165 165 166 167 173 173 161 164 164 165 169 169 170 171 172 178 179 182 182 194 189 192 198 208 223 236
242 226 218 201 205 201 190 187 182 177 178 177 170 173 171 169 172 171 166 166 159 166 165 171 174 173 179 182 184 186 191 189 195 200 211 223 236 248
230 218 208 193 204 190 190 182 179 180 181 181 180 179 176 176 178 175 172 158 154 170 176 175 180 183 184 189 197 195 192 197 203 214 223 233 246 254
151 169 173 196 199 187 175 171 166 187 189 188 186 186 181 183 183 175 172 169 167 171 186 172 182 184 188 200 195 199 202 205 212 222 231 241 250 257
155 167 181 179 175 163 159 156 163 169 185 202 197 186 185 181 186 179 180 180 170 173 185 172 180 190 200 204 210 204 205 212 221 233 240 247 252 258
173 168 158 159 154 150 163 163 160 170 148 149 176 186 180 179 185 189 184 177 167 171 180 182 178 188 199 213 209 205 213 223 238 241 246 249 256 263
175 172 166 156 156 154 164 169 171 169 163 161 160 171 175 181 190 198 190 184 181 173 185 185 179 183 204 234 222 221 226 239 239 243 247 253 261 271
176 168 177 162 165 159 173 180 179 168 159 157 159 168 171 170 178 184 183 184 183 185 194 201 194 184 182 245 233 227 234 236 244 249 253 260 269 280
167 154 160 159 164 164 167 170 181 162 161 156 159 171 168 168 177 168 177 187 186 199 204 184 192 196 186 225 283 243 238 248 251 253 260 269 275 281
138 144 149 152 147 155 154 162 162 162 161 162 165 169 174 175 170 166 177 176 167 183 196 197 192 204 200 208 248 280 276 280 265 263 267 274 281 286
138 135 137 143 149 144 144 151 158 163 167 174 173 167 171 173 185 190 192 177 182 191 184 211 224 224 209 223 255 296 262 275 295 285 292 295 296 300
151 144 139 140 141 138 132 142 150 166 168 163 159 161 163 159 158 159 165 169 193 213 227 213 206 213 213 218 232 231 244 268 276 286 287 291 293 295
145 152 153 154 154 149 149 151 152 159 170 168 164 167 164 160 159 157 164 189 206 203 218 212 215 229 240 245 244 254 258 267 274 273 275 278 285 293
146 152 153 157 162 161 155 152 156 164 168 172 168 163 168 170 177 182 189 202 203 208 238 248 243 245 249 254 263 266 278 287 288 280 280 279 283 290
121 138 141 147 156 169 164 156 165 170 164 163 157 159 166 170 177 194 202 200 206 220 230 243 250 257 261 275 282 285 276 281 284 286 288 289 292 293
146 148 149 148 163 155 161 174 157 160 164 161 169 173 180 192 209 215 225 225 228 235 243 246 247 258 266 271 270 272 277 283 289 286 288 290 292 297
157 157 165 146 138 150 154 158 155 161 174 182 179 188 197 196 206 210 224 241 242 251 251 252 250 259 267 267 270 278 282 284 286 289 289 287 286 287
170 168 170 157 167 168 171 171 178 178 186 191 193 191 191 205 224 245 242 248 258 260 267 268 273 268 267 269 274 279 285 287 290 293 290 290 288 288
Wind_Speed_850mb
26 27 22 23 24 17 21 17 25 15 23 23 29 34 38 34 32 31 34 38 41 45 48 47 43 38 41 46 43 41 38 40 37 35 33 33 31 32
27 25 20 24 21 19 22 17 18 15 17 27 30 41 35 32 35 32 35 39 39 42 46 44 41 37 40 43 42 39 39 36 34 33 30 30 32 27
29 32 22 23 19 26 20 18 18 21 25 30 31 40 37 36 34 31 37 40 41 36 43 41 40 39 43 45 40 39 37 35 34 30 34 34 29 24
29 31 23 19 20 25 26 24 18 18 25 40 40 38 34 33 34 35 38 41 41 44 41 40 38 44 47 42 41 41 35 35 30 31 31 27 23 21
30 28 27 23 19 24 29 32 23 17 34 48 54 47 44 36 40 44 39 45 43 46 43 40 41 48 46 42 40 36 33 30 28 30 28 25 24 20
26 28 35 30 19 23 35 26 25 30 39 55 55 51 46 43 42 42 43 47 49 49 48 42 46 44 44 40 38 35 33 32 32 30 27 25 21 21
22 24 27 30 22 21 32 29 27 33 47 54 55 52 46 45 47 49 55 53 52 52 51 49 50 51 47 42 38 34 32 32 32 28 26 23 22 23
26 22 28 36 22 22 28 30 33 36 47 48 53 52 50 53 49 52 56 63 56 50 56 59 51 52 47 41 38 38 38 36 32 28 26 25 24 25
14 25 32 23 23 20 23 28 31 27 28 32 46 50 54 54 53 54 55 61 64 61 57 56 50 48 42 38 40 40 39 37 32 29 28 25 26 26
16 23 21 18 20 21 27 30 32 27 16 22 39 46 44 50 45 48 57 60 62 56 58 63 54 40 36 35 36 42 42 37 31 30 28 28 28 29
18 23 23 25 27 29 37 38 32 25 22 15 29 35 34 43 44 46 48 56 66 59 53 58 42 36 33 33 37 43 40 35 34 33 32 31 30 35
21 30 31 26 39 35 32 32 34 28 26 27 34 36 37 41 38 37 50 60 66 56 50 49 46 34 22 28 34 44 41 36 35 36 34 33 34 39
21 27 34 28 44 36 29 29 28 30 26 33 45 41 48 44 45 36 43 58 61 51 52 45 54 35 15 14 27 35 37 35 37 35 35 36 38 43
21 28 36 34 36 31 30 24 21 34 35 43 46 51 56 54 52 38 36 32 39 26 33 38 48 33 24 18 14 24 31 34 34 34 35 38 42 48
30 33 41 36 32 28 22 22 36 38 42 47 47 51 55 53 51 38 27 13 36 20 26 31 33 33 30 27 21 25 18 20 32 35 36 40 43 45
33 39 40 37 36 37 34 31 34 37 39 41 45 48 48 36 42 39 32 47 33 20 25 28 30 33 38 29 19 26 33 31 30 30 34 41 47 54
36 40 40 40 49 45 37 28 31 36 33 42 45 49 43 43 43 41 38 30 21 21 26 36 39 37 38 36 33 35 32 36 38 42 46 56 58 61
36 39 39 42 46 43 32 27 25 29 38 40 42 45 52 51 42 35 28 27 26 18 11 28 35 35 36 41 46 44 42 43 44 46 51 60 69 69
29 37 37 35 39 32 26 27 26 28 33 40 37 45 47 51 37 35 34 37 32 30 32 17 18 30 36 44 38 33 38 38 44 53 53 52 60 70
23 31 33 29 21 21 26 31 26 31 38 44 42 41 45 33 28 31 26 21 24 21 21 32 37 36 37 39 40 37 40 49 50 55 59 65 74 79
20 21 16 13 20 22 22 32 33 33 41 41 40 41 38 34 36 33 36 29 32 32 34 38 40 42 47 50 55 57 54 54 61 61 68 74 80 84
19 21 21 21 19 25 28 24 28 31 25 33 35 32 45 42 37 36 31 34 36 42 42 44 42 40 45 54 62 63 63 63 64 69 73 73 77 88
24 22 15 14 21 16 21 28 25 27 29 27 29 28 29 33 26 32 30 30 35 39 40 48 45 41 45 54 62 68 68 69 71 73 77 71 70 77
Wind_Direction_850mb
225 223 236 222 230 217 244 254 213 184 183 176 173 175 185 168 161 166 169 168 167 170 172 172 174 179 172 173 169 178 180 173 171 170 165 167 167 171
226 233 239 224 226 229 218 228 215 210 172 175 175 169 173 159 160 168 173 170 167 171 172 173 175 172 173 168 171 174 170 169 169 167 165 169 177 177
232 237 235 227 218 215 202 222 221 212 184 161 165 162 157 166 170 168 169 172 166 171 170 168 171 169 166 169 169 168 173 169 169 169 178 178 182 186
238 235 228 218 228 204 200 204 211 179 164 157 156 166 159 170 170 163 166 172 166 164 171 168 170 168 170 169 168 174 174 174 172 179 178 181 190 198
241 231 222 221 230 205 199 199 194 165 163 163 155 161 169 179 165 168 169 168 164 163 169 170 170 170 168 170 175 176 179 176 185 184 186 199 203 218
235 230 222 220 223 202 197 198 179 173 168 172 165 165 166 167 173 173 161 164 164 165 169 169 170 171 172 178 179 182 182 194 189 192 198 208 223 236
242 226 218 201 205 201 190 187 182 177 178 177 170 173 171 169 172 171 166 166 159 166 165 171 174 173 179 182 184 186 191 189 195 200 211 223 236 248
230 218 208 193 204 190 190 182 179 180 181 181 180 179 176 176 178 175 172 158 154 170 176 175 180 183 184 189 197 195 192 197 203 214 223 233 246 254
151 169 173 196 199 187 175 171 166 187 189 188 186 186 181 183 183 175 172 169 167 171 186 172 182 184 188 200 195 199 202 205 212 222 231 241 250 257
155 167 181 179 175 163 159 156 163 169 185 202 197 186 185 181 186 179 180 180 170 173 185 172 180 190 200 204 210 204 205 212 221 233 240 247 252 258
173 168 158 159 154 150 163 163 160 170 148 149 176 186 180 179 185 189 184 177 167 171 180 182 178 188 199 213 209 205 213 223 238 241 246 249 256 263
175 172 166 156 156 154 164 169 171 169 163 161 160 171 175 181 190 198 190 184 181 173 185 185 179 183 204 234 222 221 226 239 239 243 247 253 261 271
176 168 177 162 165 159 173 180 179 168 159 157 159 168 171 170 178 184 183 184 183 185 194 201 194 184 182 245 233 227 234 236 244 249 253 260 269 280
167 154 160 159 164 164 167 170 181 162 161 156 159 171 168 168 177 168 177 187 186 199 204 184 192 196 186 225 283 243 238 248 251 253 260 269 275 281
138 144 149 152 147 155 154 162 162 162 161 162 165 169 174 175 170 166 177 176 167 183 196 197 192 204 200 208 248 280 276 280 265 263 267 274 281 286
138 135 137 143 149 144 144 151 158 163 167 174 173 167 171 173 185 190 192 177 182 191 184 211 224 224 209 223 255 296 262 275 295 285 292 295 296 300
151 144 139 140 141 138 132 142 150 166 168 163 159 161 163 159 158 159 165 169 193 213 227 213 206 213 213 218 232 231 244 268 276 286 287 291 293 295
145 152 153 154 154 149 149 151 152 159 170 168 164 167 164 160 159 157 164 189 206 203 218 212 215 229 240 245 244 254 258 267 274 273 275 278 285 293
146 152 153 157 162 161 155 152 156 164 168 172 168 163 168 170 177 182 189 202 203 208 238 248 243 245 249 254 263 266 278 287 288 280 280 279 283 290
121 138 141 147 156 169 164 156 165 170 164 163 157 159 166 170 177 194 202 200 206 220 230 243 250 257 261 275 282 285 276 281 284 286 288 289 292 293
146 148 149 148 163 155 161 174 157 160 164 161 169 173 180 192 209 215 225 225 228 235 243 246 247 258 266 271 270 272 277 283 289 286 288 290 292 297
157 157 165 146 138 150 154 158 155 161 174 182 179 188 197 196 206 210 224 241 242 251 251 252 250 259 267 267 270 278 282 284 286 289 289 287 286 287
170 168 170 157 167 168 171 171 178 178 186 191 193 191 191 205 224 245 242 248 258 260 267 268 273 268 267 269 274 279 285 287 290 293 290 290 288 288